#datetime,building,power
2022-11-27T00:00:00,mfh,32.97
2022-11-27T00:01:00,mfh,32.21
2022-11-27T00:02:00,mfh,31.37
2022-11-27T00:03:00,mfh,31.46
2022-11-27T00:04:00,mfh,31.52
2022-11-27T00:05:00,mfh,32.60
2022-11-27T00:06:00,mfh,32.08
2022-11-27T00:07:00,mfh,32.09
2022-11-27T00:08:00,mfh,30.14
2022-11-27T00:09:00,mfh,29.49
2022-11-27T00:10:00,mfh,29.60
2022-11-27T00:11:00,mfh,29.59
2022-11-27T00:12:00,mfh,29.50
2022-11-27T00:13:00,mfh,30.06
2022-11-27T00:14:00,mfh,30.06
2022-11-27T00:15:00,mfh,30.14
2022-11-27T00:16:00,mfh,30.21
2022-11-27T00:17:00,mfh,29.52
2022-11-27T00:18:00,mfh,29.49
2022-11-27T00:19:00,mfh,29.57
2022-11-27T00:20:00,mfh,29.53
2022-11-27T00:21:00,mfh,31.11
2022-11-27T00:22:00,mfh,30.32
2022-11-27T00:23:00,mfh,30.26
2022-11-27T00:24:00,mfh,30.27
2022-11-27T00:25:00,mfh,30.19
2022-11-27T00:26:00,mfh,30.89
2022-11-27T00:27:00,mfh,30.98
2022-11-27T00:28:00,mfh,31.20
2022-11-27T00:29:00,mfh,31.64
2022-11-27T00:30:00,mfh,31.86
2022-11-27T00:31:00,mfh,31.95
2022-11-27T00:32:00,mfh,30.32
2022-11-27T00:33:00,mfh,30.35
2022-11-27T00:34:00,mfh,29.76
2022-11-27T00:35:00,mfh,29.70
2022-11-27T00:36:00,mfh,29.78
2022-11-27T00:37:00,mfh,29.77
2022-11-27T00:38:00,mfh,30.23
2022-11-27T00:39:00,mfh,30.22
2022-11-27T00:40:00,mfh,30.26
2022-11-27T00:41:00,mfh,30.30
2022-11-27T00:42:00,mfh,29.70
2022-11-27T00:43:00,mfh,29.63
2022-11-27T00:44:00,mfh,29.57
2022-11-27T00:45:00,mfh,29.50
2022-11-27T00:46:00,mfh,30.10
2022-11-27T00:47:00,mfh,30.20
2022-11-27T00:48:00,mfh,30.22
2022-11-27T00:49:00,mfh,30.24
2022-11-27T00:50:00,mfh,29.48
2022-11-27T00:51:00,mfh,29.49
2022-11-27T00:52:00,mfh,29.48
2022-11-27T00:53:00,mfh,29.48
2022-11-27T00:54:00,mfh,30.16
2022-11-27T00:55:00,mfh,31.00
2022-11-27T00:56:00,mfh,30.13
2022-11-27T00:57:00,mfh,30.12
2022-11-27T00:58:00,mfh,30.11
2022-11-27T00:59:00,mfh,29.44
2022-11-27T01:00:00,mfh,29.98
2022-11-27T01:01:00,mfh,29.51
2022-11-27T01:02:00,mfh,30.13
2022-11-27T01:03:00,mfh,30.09
2022-11-27T01:04:00,mfh,30.57
2022-11-27T01:05:00,mfh,30.21
2022-11-27T01:06:00,mfh,30.32
2022-11-27T01:07:00,mfh,30.07
2022-11-27T01:08:00,mfh,29.90
2022-11-27T01:09:00,mfh,30.00
2022-11-27T01:10:00,mfh,30.60
2022-11-27T01:11:00,mfh,30.55
2022-11-27T01:12:00,mfh,30.54
2022-11-27T01:13:00,mfh,30.49
2022-11-27T01:14:00,mfh,30.62
2022-11-27T01:15:00,mfh,29.88
2022-11-27T01:16:00,mfh,30.31
2022-11-27T01:17:00,mfh,29.85
2022-11-27T01:18:00,mfh,29.85
2022-11-27T01:19:00,mfh,30.46
2022-11-27T01:20:00,mfh,30.45
2022-11-27T01:21:00,mfh,30.44
2022-11-27T01:22:00,mfh,30.38
2022-11-27T01:23:00,mfh,29.74
2022-11-27T01:24:00,mfh,29.81
2022-11-27T01:25:00,mfh,30.54
2022-11-27T01:26:00,mfh,29.79
2022-11-27T01:27:00,mfh,30.81
2022-11-27T01:28:00,mfh,30.39
2022-11-27T01:29:00,mfh,30.38
2022-11-27T01:30:00,mfh,30.72
2022-11-27T01:31:00,mfh,30.26
2022-11-27T01:32:00,mfh,29.64
2022-11-27T01:33:00,mfh,30.05
2022-11-27T01:34:00,mfh,29.61
2022-11-27T01:35:00,mfh,30.31
2022-11-27T01:36:00,mfh,30.38
2022-11-27T01:37:00,mfh,30.40
2022-11-27T01:38:00,mfh,30.44
2022-11-27T01:39:00,mfh,30.35
2022-11-27T01:40:00,mfh,29.73
2022-11-27T01:41:00,mfh,29.60
2022-11-27T01:42:00,mfh,29.60
2022-11-27T01:43:00,mfh,29.60
2022-11-27T01:44:00,mfh,30.24
2022-11-27T01:45:00,mfh,30.17
2022-11-27T01:46:00,mfh,30.29
2022-11-27T01:47:00,mfh,30.30
2022-11-27T01:48:00,mfh,30.29
2022-11-27T01:49:00,mfh,29.66
2022-11-27T01:50:00,mfh,29.67
2022-11-27T01:51:00,mfh,29.68
2022-11-27T01:52:00,mfh,30.17
2022-11-27T01:53:00,mfh,30.20
2022-11-27T01:54:00,mfh,30.18
2022-11-27T01:55:00,mfh,30.28
2022-11-27T01:56:00,mfh,29.57
2022-11-27T01:57:00,mfh,29.57
2022-11-27T01:58:00,mfh,29.55
2022-11-27T01:59:00,mfh,29.58
2022-11-27T02:00:00,mfh,30.27
2022-11-27T02:01:00,mfh,30.15
2022-11-27T02:02:00,mfh,30.12
2022-11-27T02:03:00,mfh,30.85
2022-11-27T02:04:00,mfh,29.98
2022-11-27T02:05:00,mfh,29.33
2022-11-27T02:06:00,mfh,29.25
2022-11-27T02:07:00,mfh,29.26
2022-11-27T02:08:00,mfh,29.93
2022-11-27T02:09:00,mfh,29.95
2022-11-27T02:10:00,mfh,32.01
2022-11-27T02:11:00,mfh,31.97
2022-11-27T02:12:00,mfh,32.19
2022-11-27T02:13:00,mfh,31.49
2022-11-27T02:14:00,mfh,31.55
2022-11-27T02:15:00,mfh,31.53
2022-11-27T02:16:00,mfh,31.46
2022-11-27T02:17:00,mfh,32.08
2022-11-27T02:18:00,mfh,32.10
2022-11-27T02:19:00,mfh,32.04
2022-11-27T02:20:00,mfh,32.00
2022-11-27T02:21:00,mfh,31.43
2022-11-27T02:22:00,mfh,31.39
2022-11-27T02:23:00,mfh,31.42
2022-11-27T02:24:00,mfh,31.42
2022-11-27T02:25:00,mfh,32.13
2022-11-27T02:26:00,mfh,32.23
2022-11-27T02:27:00,mfh,32.26
2022-11-27T02:28:00,mfh,30.32
2022-11-27T02:29:00,mfh,29.54
2022-11-27T02:30:00,mfh,29.52
2022-11-27T02:31:00,mfh,29.44
2022-11-27T02:32:00,mfh,29.45
2022-11-27T02:33:00,mfh,31.02
2022-11-27T02:34:00,mfh,30.05
2022-11-27T02:35:00,mfh,29.54
2022-11-27T02:36:00,mfh,29.30
2022-11-27T02:37:00,mfh,28.62
2022-11-27T02:38:00,mfh,28.39
2022-11-27T02:39:00,mfh,28.31
2022-11-27T02:40:00,mfh,28.24
2022-11-27T02:41:00,mfh,28.83
2022-11-27T02:42:00,mfh,28.92
2022-11-27T02:43:00,mfh,29.69
2022-11-27T02:44:00,mfh,29.68
2022-11-27T02:45:00,mfh,29.89
2022-11-27T02:46:00,mfh,30.16
2022-11-27T02:47:00,mfh,28.53
2022-11-27T02:48:00,mfh,28.52
2022-11-27T02:49:00,mfh,29.23
2022-11-27T02:50:00,mfh,29.30
2022-11-27T02:51:00,mfh,29.36
2022-11-27T02:52:00,mfh,29.17
2022-11-27T02:53:00,mfh,28.99
2022-11-27T02:54:00,mfh,28.31
2022-11-27T02:55:00,mfh,28.28
2022-11-27T02:56:00,mfh,28.22
2022-11-27T02:57:00,mfh,28.20
2022-11-27T02:58:00,mfh,28.94
2022-11-27T02:59:00,mfh,28.96
2022-11-27T03:00:00,mfh,29.27
2022-11-27T03:01:00,mfh,28.96
2022-11-27T03:02:00,mfh,28.19
2022-11-27T03:03:00,mfh,28.27
2022-11-27T03:04:00,mfh,28.13
2022-11-27T03:05:00,mfh,28.80
2022-11-27T03:06:00,mfh,28.81
2022-11-27T03:07:00,mfh,30.27
2022-11-27T03:08:00,mfh,30.40
2022-11-27T03:09:00,mfh,30.52
2022-11-27T03:10:00,mfh,29.92
2022-11-27T03:11:00,mfh,29.88
2022-11-27T03:12:00,mfh,29.86
2022-11-27T03:13:00,mfh,28.29
2022-11-27T03:14:00,mfh,28.90
2022-11-27T03:15:00,mfh,29.01
2022-11-27T03:16:00,mfh,29.30
2022-11-27T03:17:00,mfh,29.26
2022-11-27T03:18:00,mfh,29.17
2022-11-27T03:19:00,mfh,28.58
2022-11-27T03:20:00,mfh,28.54
2022-11-27T03:21:00,mfh,28.52
2022-11-27T03:22:00,mfh,29.11
2022-11-27T03:23:00,mfh,29.61
2022-11-27T03:24:00,mfh,29.28
2022-11-27T03:25:00,mfh,29.19
2022-11-27T03:26:00,mfh,29.16
2022-11-27T03:27:00,mfh,28.52
2022-11-27T03:28:00,mfh,28.38
2022-11-27T03:29:00,mfh,28.88
2022-11-27T03:30:00,mfh,28.35
2022-11-27T03:31:00,mfh,29.06
2022-11-27T03:32:00,mfh,29.05
2022-11-27T03:33:00,mfh,29.06
2022-11-27T03:34:00,mfh,29.04
2022-11-27T03:35:00,mfh,28.40
2022-11-27T03:36:00,mfh,28.33
2022-11-27T03:37:00,mfh,28.32
2022-11-27T03:38:00,mfh,28.33
2022-11-27T03:39:00,mfh,29.01
2022-11-27T03:40:00,mfh,29.09
2022-11-27T03:41:00,mfh,28.99
2022-11-27T03:42:00,mfh,28.91
2022-11-27T03:43:00,mfh,28.22
2022-11-27T03:44:00,mfh,28.22
2022-11-27T03:45:00,mfh,28.21
2022-11-27T03:46:00,mfh,28.18
2022-11-27T03:47:00,mfh,28.80
2022-11-27T03:48:00,mfh,28.83
2022-11-27T03:49:00,mfh,28.77
2022-11-27T03:50:00,mfh,29.04
2022-11-27T03:51:00,mfh,28.33
2022-11-27T03:52:00,mfh,28.37
2022-11-27T03:53:00,mfh,28.30
2022-11-27T03:54:00,mfh,28.88
2022-11-27T03:55:00,mfh,28.87
2022-11-27T03:56:00,mfh,29.19
2022-11-27T03:57:00,mfh,29.00
2022-11-27T03:58:00,mfh,28.97
2022-11-27T03:59:00,mfh,28.78
2022-11-27T04:00:00,mfh,28.15
2022-11-27T04:01:00,mfh,28.15
2022-11-27T04:02:00,mfh,29.05
2022-11-27T04:03:00,mfh,28.87
2022-11-27T04:04:00,mfh,28.81
2022-11-27T04:05:00,mfh,28.86
2022-11-27T04:06:00,mfh,28.81
2022-11-27T04:07:00,mfh,28.87
2022-11-27T04:08:00,mfh,28.33
2022-11-27T04:09:00,mfh,28.30
2022-11-27T04:10:00,mfh,28.31
2022-11-27T04:11:00,mfh,29.04
2022-11-27T04:12:00,mfh,29.10
2022-11-27T04:13:00,mfh,28.87
2022-11-27T04:14:00,mfh,28.97
2022-11-27T04:15:00,mfh,29.40
2022-11-27T04:16:00,mfh,28.36
2022-11-27T04:17:00,mfh,28.34
2022-11-27T04:18:00,mfh,30.26
2022-11-27T04:19:00,mfh,30.38
2022-11-27T04:20:00,mfh,30.99
2022-11-27T04:21:00,mfh,31.01
2022-11-27T04:22:00,mfh,31.05
2022-11-27T04:23:00,mfh,31.24
2022-11-27T04:24:00,mfh,30.54
2022-11-27T04:25:00,mfh,30.53
2022-11-27T04:26:00,mfh,30.75
2022-11-27T04:27:00,mfh,30.75
2022-11-27T04:28:00,mfh,31.39
2022-11-27T04:29:00,mfh,31.29
2022-11-27T04:30:00,mfh,31.23
2022-11-27T04:31:00,mfh,31.09
2022-11-27T04:32:00,mfh,31.10
2022-11-27T04:33:00,mfh,30.35
2022-11-27T04:34:00,mfh,30.48
2022-11-27T04:35:00,mfh,30.38
2022-11-27T04:36:00,mfh,28.78
2022-11-27T04:37:00,mfh,29.01
2022-11-27T04:38:00,mfh,28.99
2022-11-27T04:39:00,mfh,29.01
2022-11-27T04:40:00,mfh,29.01
2022-11-27T04:41:00,mfh,28.24
2022-11-27T04:42:00,mfh,28.22
2022-11-27T04:43:00,mfh,28.22
2022-11-27T04:44:00,mfh,28.19
2022-11-27T04:45:00,mfh,28.81
2022-11-27T04:46:00,mfh,28.82
2022-11-27T04:47:00,mfh,28.88
2022-11-27T04:48:00,mfh,29.64
2022-11-27T04:49:00,mfh,29.39
2022-11-27T04:50:00,mfh,28.79
2022-11-27T04:51:00,mfh,28.91
2022-11-27T04:52:00,mfh,28.90
2022-11-27T04:53:00,mfh,30.43
2022-11-27T04:54:00,mfh,29.39
2022-11-27T04:55:00,mfh,29.44
2022-11-27T04:56:00,mfh,29.52
2022-11-27T04:57:00,mfh,29.54
2022-11-27T04:58:00,mfh,28.85
2022-11-27T04:59:00,mfh,28.85
2022-11-27T05:00:00,mfh,28.95
2022-11-27T05:01:00,mfh,31.69
2022-11-27T05:02:00,mfh,34.04
2022-11-27T05:03:00,mfh,33.98
2022-11-27T05:04:00,mfh,33.93
2022-11-27T05:05:00,mfh,33.95
2022-11-27T05:06:00,mfh,33.92
2022-11-27T05:07:00,mfh,33.87
2022-11-27T05:08:00,mfh,33.89
2022-11-27T05:09:00,mfh,33.86
2022-11-27T05:10:00,mfh,33.15
2022-11-27T05:11:00,mfh,33.19
2022-11-27T05:12:00,mfh,33.64
2022-11-27T05:13:00,mfh,33.60
2022-11-27T05:14:00,mfh,33.63
2022-11-27T05:15:00,mfh,33.73
2022-11-27T05:16:00,mfh,34.14
2022-11-27T05:17:00,mfh,33.73
2022-11-27T05:18:00,mfh,33.52
2022-11-27T05:19:00,mfh,32.85
2022-11-27T05:20:00,mfh,32.94
2022-11-27T05:21:00,mfh,34.70
2022-11-27T05:22:00,mfh,33.60
2022-11-27T05:23:00,mfh,33.62
2022-11-27T05:24:00,mfh,33.59
2022-11-27T05:25:00,mfh,33.60
2022-11-27T05:26:00,mfh,33.68
2022-11-27T05:27:00,mfh,34.23
2022-11-27T05:28:00,mfh,33.81
2022-11-27T05:29:00,mfh,33.79
2022-11-27T05:30:00,mfh,33.79
2022-11-27T05:31:00,mfh,33.07
2022-11-27T05:32:00,mfh,33.03
2022-11-27T05:33:00,mfh,33.69
2022-11-27T05:34:00,mfh,34.43
2022-11-27T05:35:00,mfh,34.51
2022-11-27T05:36:00,mfh,34.43
2022-11-27T05:37:00,mfh,33.55
2022-11-27T05:38:00,mfh,33.52
2022-11-27T05:39:00,mfh,33.86
2022-11-27T05:40:00,mfh,33.88
2022-11-27T05:41:00,mfh,33.09
2022-11-27T05:42:00,mfh,32.90
2022-11-27T05:43:00,mfh,32.90
2022-11-27T05:44:00,mfh,33.52
2022-11-27T05:45:00,mfh,33.58
2022-11-27T05:46:00,mfh,33.58
2022-11-27T05:47:00,mfh,33.67
2022-11-27T05:48:00,mfh,33.68
2022-11-27T05:49:00,mfh,34.05
2022-11-27T05:50:00,mfh,34.13
2022-11-27T05:51:00,mfh,35.51
2022-11-27T05:52:00,mfh,35.51
2022-11-27T05:53:00,mfh,34.88
2022-11-27T05:54:00,mfh,34.81
2022-11-27T05:55:00,mfh,35.45
2022-11-27T05:56:00,mfh,33.91
2022-11-27T05:57:00,mfh,33.85
2022-11-27T05:58:00,mfh,33.56
2022-11-27T05:59:00,mfh,33.55
2022-11-27T06:00:00,mfh,33.70
2022-11-27T06:01:00,mfh,50.80
2022-11-27T06:02:00,mfh,55.55
2022-11-27T06:03:00,mfh,55.55
2022-11-27T06:04:00,mfh,55.35
2022-11-27T06:05:00,mfh,54.97
2022-11-27T06:06:00,mfh,55.58
2022-11-27T06:07:00,mfh,54.52
2022-11-27T06:08:00,mfh,53.99
2022-11-27T06:09:00,mfh,53.65
2022-11-27T06:10:00,mfh,53.79
2022-11-27T06:11:00,mfh,53.76
2022-11-27T06:12:00,mfh,53.59
2022-11-27T06:13:00,mfh,53.74
2022-11-27T06:14:00,mfh,54.14
2022-11-27T06:15:00,mfh,53.04
2022-11-27T06:16:00,mfh,53.35
2022-11-27T06:17:00,mfh,54.02
2022-11-27T06:18:00,mfh,54.44
2022-11-27T06:19:00,mfh,54.00
2022-11-27T06:20:00,mfh,54.16
2022-11-27T06:21:00,mfh,54.12
2022-11-27T06:22:00,mfh,56.03
2022-11-27T06:23:00,mfh,56.26
2022-11-27T06:24:00,mfh,56.22
2022-11-27T06:25:00,mfh,55.69
2022-11-27T06:26:00,mfh,55.58
2022-11-27T06:27:00,mfh,55.46
2022-11-27T06:28:00,mfh,56.29
2022-11-27T06:29:00,mfh,56.41
2022-11-27T06:30:00,mfh,56.12
2022-11-27T06:31:00,mfh,56.21
2022-11-27T06:32:00,mfh,55.93
2022-11-27T06:33:00,mfh,55.78
2022-11-27T06:34:00,mfh,55.84
2022-11-27T06:35:00,mfh,55.70
2022-11-27T06:36:00,mfh,55.16
2022-11-27T06:37:00,mfh,55.06
2022-11-27T06:38:00,mfh,54.97
2022-11-27T06:39:00,mfh,55.66
2022-11-27T06:40:00,mfh,53.81
2022-11-27T06:41:00,mfh,53.90
2022-11-27T06:42:00,mfh,53.76
2022-11-27T06:43:00,mfh,53.96
2022-11-27T06:44:00,mfh,53.86
2022-11-27T06:45:00,mfh,53.96
2022-11-27T06:46:00,mfh,53.17
2022-11-27T06:47:00,mfh,53.12
2022-11-27T06:48:00,mfh,53.22
2022-11-27T06:49:00,mfh,53.87
2022-11-27T06:50:00,mfh,53.89
2022-11-27T06:51:00,mfh,53.91
2022-11-27T06:52:00,mfh,53.95
2022-11-27T06:53:00,mfh,53.99
2022-11-27T06:54:00,mfh,54.03
2022-11-27T06:55:00,mfh,53.36
2022-11-27T06:56:00,mfh,53.65
2022-11-27T06:57:00,mfh,53.51
2022-11-27T06:58:00,mfh,52.81
2022-11-27T06:59:00,mfh,52.76
2022-11-27T07:00:00,mfh,53.59
2022-11-27T07:01:00,mfh,53.48
2022-11-27T07:02:00,mfh,53.34
2022-11-27T07:03:00,mfh,53.27
2022-11-27T07:04:00,mfh,53.30
2022-11-27T07:05:00,mfh,53.28
2022-11-27T07:06:00,mfh,53.32
2022-11-27T07:07:00,mfh,53.45
2022-11-27T07:08:00,mfh,52.85
2022-11-27T07:09:00,mfh,52.67
2022-11-27T07:10:00,mfh,53.32
2022-11-27T07:11:00,mfh,53.34
2022-11-27T07:12:00,mfh,53.41
2022-11-27T07:13:00,mfh,53.35
2022-11-27T07:14:00,mfh,54.08
2022-11-27T07:15:00,mfh,53.24
2022-11-27T07:16:00,mfh,53.23
2022-11-27T07:17:00,mfh,53.39
2022-11-27T07:18:00,mfh,53.34
2022-11-27T07:19:00,mfh,52.75
2022-11-27T07:20:00,mfh,52.64
2022-11-27T07:21:00,mfh,53.69
2022-11-27T07:22:00,mfh,53.33
2022-11-27T07:23:00,mfh,53.47
2022-11-27T07:24:00,mfh,53.57
2022-11-27T07:25:00,mfh,53.66
2022-11-27T07:26:00,mfh,53.56
2022-11-27T07:27:00,mfh,53.59
2022-11-27T07:28:00,mfh,53.69
2022-11-27T07:29:00,mfh,53.74
2022-11-27T07:30:00,mfh,53.04
2022-11-27T07:31:00,mfh,53.21
2022-11-27T07:32:00,mfh,53.80
2022-11-27T07:33:00,mfh,53.74
2022-11-27T07:34:00,mfh,53.61
2022-11-27T07:35:00,mfh,53.98
2022-11-27T07:36:00,mfh,53.63
2022-11-27T07:37:00,mfh,53.64
2022-11-27T07:38:00,mfh,53.71
2022-11-27T07:39:00,mfh,54.11
2022-11-27T07:40:00,mfh,53.72
2022-11-27T07:41:00,mfh,53.10
2022-11-27T07:42:00,mfh,53.33
2022-11-27T07:43:00,mfh,53.73
2022-11-27T07:44:00,mfh,53.53
2022-11-27T07:45:00,mfh,53.37
2022-11-27T07:46:00,mfh,53.47
2022-11-27T07:47:00,mfh,53.32
2022-11-27T07:48:00,mfh,53.53
2022-11-27T07:49:00,mfh,53.41
2022-11-27T07:50:00,mfh,52.83
2022-11-27T07:51:00,mfh,52.80
2022-11-27T07:52:00,mfh,52.81
2022-11-27T07:53:00,mfh,53.48
2022-11-27T07:54:00,mfh,53.64
2022-11-27T07:55:00,mfh,53.71
2022-11-27T07:56:00,mfh,53.59
2022-11-27T07:57:00,mfh,53.74
2022-11-27T07:58:00,mfh,53.76
2022-11-27T07:59:00,mfh,53.62
2022-11-27T08:00:00,mfh,53.62
2022-11-27T08:01:00,mfh,53.54
2022-11-27T08:02:00,mfh,52.55
2022-11-27T08:03:00,mfh,52.76
2022-11-27T08:04:00,mfh,54.01
2022-11-27T08:05:00,mfh,53.32
2022-11-27T08:06:00,mfh,53.25
2022-11-27T08:07:00,mfh,53.43
2022-11-27T08:08:00,mfh,53.69
2022-11-27T08:09:00,mfh,53.71
2022-11-27T08:10:00,mfh,53.42
2022-11-27T08:11:00,mfh,53.82
2022-11-27T08:12:00,mfh,52.70
2022-11-27T08:13:00,mfh,52.68
2022-11-27T08:14:00,mfh,53.09
2022-11-27T08:15:00,mfh,53.33
2022-11-27T08:16:00,mfh,53.35
2022-11-27T08:17:00,mfh,53.47
2022-11-27T08:18:00,mfh,53.42
2022-11-27T08:19:00,mfh,53.45
2022-11-27T08:20:00,mfh,53.33
2022-11-27T08:21:00,mfh,53.34
2022-11-27T08:22:00,mfh,53.50
2022-11-27T08:23:00,mfh,52.66
2022-11-27T08:24:00,mfh,52.64
2022-11-27T08:25:00,mfh,52.57
2022-11-27T08:26:00,mfh,53.22
2022-11-27T08:27:00,mfh,53.29
2022-11-27T08:28:00,mfh,53.39
2022-11-27T08:29:00,mfh,53.71
2022-11-27T08:30:00,mfh,53.42
2022-11-27T08:31:00,mfh,53.54
2022-11-27T08:32:00,mfh,53.37
2022-11-27T08:33:00,mfh,53.62
2022-11-27T08:34:00,mfh,52.60
2022-11-27T08:35:00,mfh,52.50
2022-11-27T08:36:00,mfh,53.09
2022-11-27T08:37:00,mfh,53.06
2022-11-27T08:38:00,mfh,52.90
2022-11-27T08:39:00,mfh,52.86
2022-11-27T08:40:00,mfh,52.96
2022-11-27T08:41:00,mfh,53.09
2022-11-27T08:42:00,mfh,53.50
2022-11-27T08:43:00,mfh,54.27
2022-11-27T08:44:00,mfh,53.69
2022-11-27T08:45:00,mfh,54.70
2022-11-27T08:46:00,mfh,53.86
2022-11-27T08:47:00,mfh,54.54
2022-11-27T08:48:00,mfh,54.66
2022-11-27T08:49:00,mfh,54.65
2022-11-27T08:50:00,mfh,56.14
2022-11-27T08:51:00,mfh,56.41
2022-11-27T08:52:00,mfh,56.44
2022-11-27T08:53:00,mfh,56.22
2022-11-27T08:54:00,mfh,57.56
2022-11-27T08:55:00,mfh,55.78
2022-11-27T08:56:00,mfh,55.83
2022-11-27T08:57:00,mfh,56.40
2022-11-27T08:58:00,mfh,56.95
2022-11-27T08:59:00,mfh,56.45
2022-11-27T09:00:00,mfh,56.99
2022-11-27T09:01:00,mfh,56.77
2022-11-27T09:02:00,mfh,56.74
2022-11-27T09:03:00,mfh,57.19
2022-11-27T09:04:00,mfh,56.50
2022-11-27T09:05:00,mfh,56.30
2022-11-27T09:06:00,mfh,55.97
2022-11-27T09:07:00,mfh,55.80
2022-11-27T09:08:00,mfh,55.89
2022-11-27T09:09:00,mfh,56.49
2022-11-27T09:10:00,mfh,58.04
2022-11-27T09:11:00,mfh,57.65
2022-11-27T09:12:00,mfh,55.90
2022-11-27T09:13:00,mfh,56.16
2022-11-27T09:14:00,mfh,55.25
2022-11-27T09:15:00,mfh,56.49
2022-11-27T09:16:00,mfh,55.75
2022-11-27T09:17:00,mfh,55.98
2022-11-27T09:18:00,mfh,55.86
2022-11-27T09:19:00,mfh,56.34
2022-11-27T09:20:00,mfh,56.29
2022-11-27T09:21:00,mfh,56.38
2022-11-27T09:22:00,mfh,56.42
2022-11-27T09:23:00,mfh,57.05
2022-11-27T09:24:00,mfh,57.58
2022-11-27T09:25:00,mfh,58.17
2022-11-27T09:26:00,mfh,57.95
2022-11-27T09:27:00,mfh,59.70
2022-11-27T09:28:00,mfh,57.97
2022-11-27T09:29:00,mfh,58.89
2022-11-27T09:30:00,mfh,58.97
2022-11-27T09:31:00,mfh,59.07
2022-11-27T09:32:00,mfh,59.47
2022-11-27T09:33:00,mfh,59.07
2022-11-27T09:34:00,mfh,59.29
2022-11-27T09:35:00,mfh,59.44
2022-11-27T09:36:00,mfh,59.83
2022-11-27T09:37:00,mfh,59.52
2022-11-27T09:38:00,mfh,58.44
2022-11-27T09:39:00,mfh,57.79
2022-11-27T09:40:00,mfh,58.43
2022-11-27T09:41:00,mfh,58.07
2022-11-27T09:42:00,mfh,57.74
2022-11-27T09:43:00,mfh,58.13
2022-11-27T09:44:00,mfh,58.13
2022-11-27T09:45:00,mfh,58.03
2022-11-27T09:46:00,mfh,58.14
2022-11-27T09:47:00,mfh,58.59
2022-11-27T09:48:00,mfh,57.98
2022-11-27T09:49:00,mfh,57.52
2022-11-27T09:50:00,mfh,57.24
2022-11-27T09:51:00,mfh,57.39
2022-11-27T09:52:00,mfh,58.07
2022-11-27T09:53:00,mfh,57.78
2022-11-27T09:54:00,mfh,58.68
2022-11-27T09:55:00,mfh,58.12
2022-11-27T09:56:00,mfh,57.86
2022-11-27T09:57:00,mfh,57.87
2022-11-27T09:58:00,mfh,57.46
2022-11-27T09:59:00,mfh,56.86
2022-11-27T10:00:00,mfh,56.97
2022-11-27T10:01:00,mfh,56.55
2022-11-27T10:02:00,mfh,56.57
2022-11-27T10:03:00,mfh,57.05
2022-11-27T10:04:00,mfh,56.19
2022-11-27T10:05:00,mfh,56.56
2022-11-27T10:06:00,mfh,56.83
2022-11-27T10:07:00,mfh,56.78
2022-11-27T10:08:00,mfh,56.82
2022-11-27T10:09:00,mfh,56.64
2022-11-27T10:10:00,mfh,56.90
2022-11-27T10:11:00,mfh,56.61
2022-11-27T10:12:00,mfh,55.85
2022-11-27T10:13:00,mfh,55.84
2022-11-27T10:14:00,mfh,56.36
2022-11-27T10:15:00,mfh,56.50
2022-11-27T10:16:00,mfh,56.59
2022-11-27T10:17:00,mfh,57.06
2022-11-27T10:18:00,mfh,57.61
2022-11-27T10:19:00,mfh,57.69
2022-11-27T10:20:00,mfh,57.69
2022-11-27T10:21:00,mfh,57.81
2022-11-27T10:22:00,mfh,57.16
2022-11-27T10:23:00,mfh,57.13
2022-11-27T10:24:00,mfh,57.79
2022-11-27T10:25:00,mfh,57.64
2022-11-27T10:26:00,mfh,57.80
2022-11-27T10:27:00,mfh,56.48
2022-11-27T10:28:00,mfh,56.04
2022-11-27T10:29:00,mfh,55.96
2022-11-27T10:30:00,mfh,56.03
2022-11-27T10:31:00,mfh,56.39
2022-11-27T10:32:00,mfh,56.15
2022-11-27T10:33:00,mfh,56.13
2022-11-27T10:34:00,mfh,55.82
2022-11-27T10:35:00,mfh,55.98
2022-11-27T10:36:00,mfh,56.53
2022-11-27T10:37:00,mfh,56.52
2022-11-27T10:38:00,mfh,55.98
2022-11-27T10:39:00,mfh,55.48
2022-11-27T10:40:00,mfh,55.61
2022-11-27T10:41:00,mfh,55.50
2022-11-27T10:42:00,mfh,55.63
2022-11-27T10:43:00,mfh,55.69
2022-11-27T10:44:00,mfh,54.61
2022-11-27T10:45:00,mfh,54.49
2022-11-27T10:46:00,mfh,55.04
2022-11-27T10:47:00,mfh,55.10
2022-11-27T10:48:00,mfh,55.03
2022-11-27T10:49:00,mfh,55.30
2022-11-27T10:50:00,mfh,55.24
2022-11-27T10:51:00,mfh,55.57
2022-11-27T10:52:00,mfh,55.80
2022-11-27T10:53:00,mfh,55.95
2022-11-27T10:54:00,mfh,55.36
2022-11-27T10:55:00,mfh,55.29
2022-11-27T10:56:00,mfh,55.43
2022-11-27T10:57:00,mfh,54.72
2022-11-27T10:58:00,mfh,55.39
2022-11-27T10:59:00,mfh,55.35
2022-11-27T11:00:00,mfh,55.63
2022-11-27T11:01:00,mfh,55.99
2022-11-27T11:02:00,mfh,56.00
2022-11-27T11:03:00,mfh,56.05
2022-11-27T11:04:00,mfh,55.89
2022-11-27T11:05:00,mfh,55.84
2022-11-27T11:06:00,mfh,55.41
2022-11-27T11:07:00,mfh,55.45
2022-11-27T11:08:00,mfh,55.41
2022-11-27T11:09:00,mfh,55.94
2022-11-27T11:10:00,mfh,55.78
2022-11-27T11:11:00,mfh,56.10
2022-11-27T11:12:00,mfh,56.11
2022-11-27T11:13:00,mfh,56.30
2022-11-27T11:14:00,mfh,55.99
2022-11-27T11:15:00,mfh,55.53
2022-11-27T11:16:00,mfh,55.64
2022-11-27T11:17:00,mfh,54.89
2022-11-27T11:18:00,mfh,54.95
2022-11-27T11:19:00,mfh,55.01
2022-11-27T11:20:00,mfh,55.68
2022-11-27T11:21:00,mfh,56.32
2022-11-27T11:22:00,mfh,56.56
2022-11-27T11:23:00,mfh,56.68
2022-11-27T11:24:00,mfh,56.10
2022-11-27T11:25:00,mfh,56.21
2022-11-27T11:26:00,mfh,56.14
2022-11-27T11:27:00,mfh,55.94
2022-11-27T11:28:00,mfh,54.73
2022-11-27T11:29:00,mfh,55.52
2022-11-27T11:30:00,mfh,62.54
2022-11-27T11:31:00,mfh,63.99
2022-11-27T11:32:00,mfh,64.86
2022-11-27T11:33:00,mfh,65.04
2022-11-27T11:34:00,mfh,65.18
2022-11-27T11:35:00,mfh,65.19
2022-11-27T11:36:00,mfh,65.26
2022-11-27T11:37:00,mfh,65.20
2022-11-27T11:38:00,mfh,65.25
2022-11-27T11:39:00,mfh,64.61
2022-11-27T11:40:00,mfh,64.43
2022-11-27T11:41:00,mfh,64.41
2022-11-27T11:42:00,mfh,64.76
2022-11-27T11:43:00,mfh,65.43
2022-11-27T11:44:00,mfh,56.88
2022-11-27T11:45:00,mfh,56.97
2022-11-27T11:46:00,mfh,57.20
2022-11-27T11:47:00,mfh,57.00
2022-11-27T11:48:00,mfh,57.99
2022-11-27T11:49:00,mfh,57.38
2022-11-27T11:50:00,mfh,57.11
2022-11-27T11:51:00,mfh,56.51
2022-11-27T11:52:00,mfh,56.56
2022-11-27T11:53:00,mfh,59.45
2022-11-27T11:54:00,mfh,58.70
2022-11-27T11:55:00,mfh,58.71
2022-11-27T11:56:00,mfh,58.30
2022-11-27T11:57:00,mfh,58.30
2022-11-27T11:58:00,mfh,56.88
2022-11-27T11:59:00,mfh,56.74
2022-11-27T12:00:00,mfh,56.63
2022-11-27T12:01:00,mfh,56.58
2022-11-27T12:02:00,mfh,55.83
2022-11-27T12:03:00,mfh,55.84
2022-11-27T12:04:00,mfh,55.65
2022-11-27T12:05:00,mfh,55.96
2022-11-27T12:06:00,mfh,56.17
2022-11-27T12:07:00,mfh,56.25
2022-11-27T12:08:00,mfh,56.18
2022-11-27T12:09:00,mfh,56.13
2022-11-27T12:10:00,mfh,56.97
2022-11-27T12:11:00,mfh,56.89
2022-11-27T12:12:00,mfh,56.96
2022-11-27T12:13:00,mfh,57.01
2022-11-27T12:14:00,mfh,56.81
2022-11-27T12:15:00,mfh,57.03
2022-11-27T12:16:00,mfh,56.54
2022-11-27T12:17:00,mfh,56.91
2022-11-27T12:18:00,mfh,56.35
2022-11-27T12:19:00,mfh,57.72
2022-11-27T12:20:00,mfh,57.02
2022-11-27T12:21:00,mfh,56.42
2022-11-27T12:22:00,mfh,56.37
2022-11-27T12:23:00,mfh,56.72
2022-11-27T12:24:00,mfh,56.38
2022-11-27T12:25:00,mfh,56.07
2022-11-27T12:26:00,mfh,55.98
2022-11-27T12:27:00,mfh,56.38
2022-11-27T12:28:00,mfh,56.41
2022-11-27T12:29:00,mfh,56.73
2022-11-27T12:30:00,mfh,56.83
2022-11-27T12:31:00,mfh,56.64
2022-11-27T12:32:00,mfh,57.08
2022-11-27T12:33:00,mfh,57.23
2022-11-27T12:34:00,mfh,56.43
2022-11-27T12:35:00,mfh,56.48
2022-11-27T12:36:00,mfh,56.54
2022-11-27T12:37:00,mfh,56.52
2022-11-27T12:38:00,mfh,56.56
2022-11-27T12:39:00,mfh,56.69
2022-11-27T12:40:00,mfh,57.21
2022-11-27T12:41:00,mfh,56.81
2022-11-27T12:42:00,mfh,56.79
2022-11-27T12:43:00,mfh,56.77
2022-11-27T12:44:00,mfh,56.74
2022-11-27T12:45:00,mfh,56.36
2022-11-27T12:46:00,mfh,56.85
2022-11-27T12:47:00,mfh,55.53
2022-11-27T12:48:00,mfh,54.84
2022-11-27T12:49:00,mfh,56.38
2022-11-27T12:50:00,mfh,56.31
2022-11-27T12:51:00,mfh,56.22
2022-11-27T12:52:00,mfh,56.83
2022-11-27T12:53:00,mfh,55.65
2022-11-27T12:54:00,mfh,55.94
2022-11-27T12:55:00,mfh,55.95
2022-11-27T12:56:00,mfh,55.67
2022-11-27T12:57:00,mfh,55.43
2022-11-27T12:58:00,mfh,55.58
2022-11-27T12:59:00,mfh,55.92
2022-11-27T13:00:00,mfh,55.96
2022-11-27T13:01:00,mfh,56.09
2022-11-27T13:02:00,mfh,56.06
2022-11-27T13:03:00,mfh,55.93
2022-11-27T13:04:00,mfh,56.05
2022-11-27T13:05:00,mfh,56.24
2022-11-27T13:06:00,mfh,57.05
2022-11-27T13:07:00,mfh,57.17
2022-11-27T13:08:00,mfh,56.37
2022-11-27T13:09:00,mfh,56.27
2022-11-27T13:10:00,mfh,56.59
2022-11-27T13:11:00,mfh,56.53
2022-11-27T13:12:00,mfh,55.47
2022-11-27T13:13:00,mfh,55.69
2022-11-27T13:14:00,mfh,55.67
2022-11-27T13:15:00,mfh,55.40
2022-11-27T13:16:00,mfh,55.46
2022-11-27T13:17:00,mfh,56.33
2022-11-27T13:18:00,mfh,54.35